Location: Baumgartsau
(48.4586°N, 14.0864°E)
Time: 11:05:21
(UTC+00:00)

Cosmos 2181 Rocket - Pass Details

Date: 09 April 2020
Orbit: 952 x 1014 km, 82.9° (Epoch: 25 May)

Event Time Altitude Azimuth Distance (km) Brightness Sun altitude
Exits shadow 19:28:03 - 179° (S) 3,384 6.5 -16.3°
Reaches altitude 10° 19:29:48 10° 177° (S) 2,724 6.0 -16.5°
Maximum altitude 19:35:59 71° 95° (E) 1,023 3.9 -17.3°
Drops below altitude 10° 19:42:08 10° 13° (NNE) 2,705 6.6 -18.2°
Sets 19:44:38 0° 11° (NNE) 3,649 7.3 -18.5°
